ENT4355 EPKT-LTAI

Flight info

Callsign ENT4355
Flight time N/A
Altitude 39000
Route REGTO DCT RAZEC DCT KEKED DCT UPAMA DCT ADORU UG80 EKI UL606 CRD UL854 KOZLU
Aircraft B738/M-SDGHIJ1RWXY/EB1

Departure

Time 2026-05-04 20:22
Airport Katowice Wojciech Korfanty International Airport (EPKT)

Arrival

Time N/A
Airport Antalya International Airport (LTAI)
Time Latitude Longitude Altitude Speed Heading
2026-05-04 20:07 50.47146 19.08820 997 ft 0 kts 180°
2026-05-04 20:15 50.47163 19.08820 997 ft 3 kts 180°
2026-05-04 20:15 50.47185 19.08820 997 ft 3 kts 180°
2026-05-04 20:15 50.47204 19.08821 997 ft 3 kts 176°
2026-05-04 20:16 50.47224 19.08813 997 ft 3 kts 132°
2026-05-04 20:16 50.47231 19.08786 997 ft 2 kts 90°
2026-05-04 20:16 50.47232 19.08751 997 ft 3 kts 90°
2026-05-04 20:16 50.47232 19.08746 997 ft 0 kts 90°
2026-05-04 20:18 50.47232 19.08764 997 ft 6 kts 90°
2026-05-04 20:19 50.47231 19.08931 997 ft 23 kts 90°
2026-05-04 20:19 50.47230 19.09184 997 ft 23 kts 90°
2026-05-04 20:19 50.47229 19.09438 997 ft 25 kts 90°
2026-05-04 20:19 50.47228 19.09731 997 ft 29 kts 90°
2026-05-04 20:20 50.47245 19.10037 997 ft 28 kts 54°
2026-05-04 20:20 50.47358 19.10268 997 ft 26 kts 51°
2026-05-04 20:20 50.47457 19.10439 998 ft 19 kts 21°
2026-05-04 20:20 50.47579 19.10420 997 ft 18 kts 316°
2026-05-04 20:21 50.47594 19.10233 997 ft 17 kts 270°
2026-05-04 20:21 50.47594 19.09786 997 ft 82 kts 271°
2026-05-04 20:21 50.47595 19.06455 1498 ft 194 kts 270°
2026-05-04 20:22 50.47612 19.04279 2479 ft 204 kts 271°
2026-05-04 20:22 50.47643 19.02002 3171 ft 219 kts 269°
2026-05-04 20:22 50.47617 18.99475 3477 ft 243 kts 263°
2026-05-04 20:22 50.46934 18.96959 3821 ft 263 kts 227°
2026-05-04 20:23 50.45407 18.95358 4621 ft 270 kts 198°
2026-05-04 20:23 50.43547 18.95108 5570 ft 273 kts 169°
2026-05-04 20:23 50.41803 18.96281 6467 ft 277 kts 147°
2026-05-04 20:23 50.40248 18.98104 7307 ft 282 kts 141°
2026-05-04 20:24 50.38733 19.00102 8123 ft 287 kts 140°
2026-05-04 20:24 50.37212 19.02153 8929 ft 291 kts 140°
2026-05-04 20:24 50.35665 19.04229 9713 ft 295 kts 140°
2026-05-04 20:24 50.34089 19.06325 10393 ft 303 kts 140°
2026-05-04 20:25 50.32413 19.08532 10582 ft 327 kts 140°
2026-05-04 20:25 50.30616 19.10877 10871 ft 344 kts 141°
2026-05-04 20:25 50.28752 19.13295 11422 ft 351 kts 141°
2026-05-04 20:25 50.26862 19.15735 12074 ft 354 kts 141°
2026-05-04 20:26 50.24955 19.18188 12705 ft 357 kts 141°
2026-05-04 20:26 50.23027 19.20660 13288 ft 360 kts 141°
2026-05-04 20:26 50.21076 19.23156 13840 ft 364 kts 141°
2026-05-04 20:26 50.19106 19.25672 14373 ft 368 kts 141°
2026-05-04 20:27 50.17116 19.28210 14917 ft 370 kts 141°
2026-05-04 20:27 50.15117 19.30756 15468 ft 373 kts 141°
2026-05-04 20:27 50.13093 19.33330 15876 ft 378 kts 141°
2026-05-04 20:27 50.11074 19.35896 16301 ft 382 kts 141°
2026-05-04 20:28 50.09008 19.38517 16755 ft 384 kts 141°
2026-05-04 20:28 50.06901 19.41188 17193 ft 387 kts 141°
2026-05-04 20:28 50.04834 19.43806 17592 ft 390 kts 141°
2026-05-04 20:28 50.02722 19.46476 17978 ft 393 kts 141°
2026-05-04 20:29 50.00596 19.49162 18351 ft 395 kts 141°
2026-05-04 20:29 49.98453 19.51866 18710 ft 398 kts 141°
2026-05-04 20:29 49.96295 19.54585 19064 ft 400 kts 141°
2026-05-04 20:29 49.94129 19.57311 19401 ft 402 kts 141°
2026-05-04 20:30 49.91945 19.60057 19709 ft 405 kts 141°
2026-05-04 20:30 49.89749 19.62814 20009 ft 408 kts 141°
2026-05-04 20:30 49.87540 19.65585 20304 ft 410 kts 141°
2026-05-04 20:30 49.85317 19.68370 20588 ft 412 kts 141°
2026-05-04 20:31 49.83082 19.71166 20860 ft 414 kts 141°
2026-05-04 20:31 49.80837 19.73972 21119 ft 416 kts 141°
2026-05-04 20:31 49.78580 19.76788 21369 ft 418 kts 141°
2026-05-04 20:31 49.76323 19.79602 21725 ft 417 kts 141°
2026-05-04 20:32 49.74054 19.82426 21896 ft 420 kts 141°
2026-05-04 20:32 49.71768 19.85269 22052 ft 424 kts 141°
2026-05-04 20:32 49.69431 19.88171 22267 ft 425 kts 141°
2026-05-04 20:32 49.67153 19.90996 22489 ft 426 kts 141°
2026-05-04 20:33 49.64838 19.93864 22693 ft 428 kts 141°
2026-05-04 20:33 49.62514 19.96739 22878 ft 429 kts 141°
2026-05-04 20:33 49.60176 19.99629 23055 ft 431 kts 141°
2026-05-04 20:33 49.57833 20.02519 23230 ft 432 kts 141°
2026-05-04 20:34 49.55480 20.05419 23397 ft 434 kts 142°
2026-05-04 20:34 49.53121 20.08323 23559 ft 435 kts 142°
2026-05-04 20:34 49.50751 20.11237 23715 ft 436 kts 142°
2026-05-04 20:34 49.48377 20.14152 23863 ft 437 kts 142°
2026-05-04 20:35 49.45997 20.17070 24004 ft 439 kts 142°
2026-05-04 20:35 49.43608 20.19995 24140 ft 440 kts 142°
2026-05-04 20:35 49.41212 20.22926 24272 ft 441 kts 142°
2026-05-04 20:35 49.38810 20.25861 24400 ft 442 kts 142°
2026-05-04 20:36 49.36400 20.28800 24521 ft 443 kts 142°
2026-05-04 20:36 49.33986 20.31741 24636 ft 444 kts 142°
2026-05-04 20:36 49.31563 20.34689 24748 ft 445 kts 142°
2026-05-04 20:36 49.29140 20.37634 24854 ft 446 kts 142°
2026-05-04 20:37 49.26707 20.40587 24957 ft 446 kts 142°
2026-05-04 20:37 49.24271 20.43539 25059 ft 447 kts 142°
2026-05-04 20:37 49.21829 20.46496 25155 ft 448 kts 142°
2026-05-04 20:37 49.19382 20.49454 25246 ft 449 kts 142°
2026-05-04 20:38 49.16929 20.52416 25337 ft 450 kts 142°
2026-05-04 20:38 49.14475 20.55375 25389 ft 451 kts 142°
2026-05-04 20:38 49.12006 20.58348 25449 ft 452 kts 142°
2026-05-04 20:38 49.09535 20.61320 25567 ft 452 kts 142°
2026-05-04 20:39 49.07066 20.64285 25672 ft 452 kts 142°
2026-05-04 20:39 49.04591 20.67254 25744 ft 453 kts 142°
2026-05-04 20:39 49.02116 20.70220 25802 ft 454 kts 142°
2026-05-04 20:39 48.99631 20.73192 25867 ft 454 kts 142°
2026-05-04 20:40 48.97147 20.76161 25935 ft 455 kts 142°
2026-05-04 20:40 48.94656 20.79132 26013 ft 455 kts 142°
2026-05-04 20:40 48.92164 20.82103 26088 ft 455 kts 142°
2026-05-04 20:40 48.89676 20.85063 26165 ft 455 kts 142°
2026-05-04 20:41 48.87181 20.88029 26229 ft 455 kts 142°
2026-05-04 20:41 48.84682 20.90996 26282 ft 456 kts 142°
2026-05-04 20:41 48.82183 20.93959 26334 ft 457 kts 142°
2026-05-04 20:41 48.79678 20.96925 26387 ft 457 kts 142°
2026-05-04 20:42 48.77169 20.99893 26439 ft 457 kts 142°
2026-05-04 20:42 48.74658 21.02858 26490 ft 458 kts 142°
2026-05-04 20:42 48.72143 21.05824 26540 ft 458 kts 142°
2026-05-04 20:42 48.69661 21.08747 26587 ft 459 kts 142°
2026-05-04 20:43 48.67145 21.11708 26631 ft 459 kts 142°
2026-05-04 20:43 48.64618 21.14677 26672 ft 459 kts 142°
2026-05-04 20:43 48.62096 21.17636 26712 ft 460 kts 142°
2026-05-04 20:43 48.59565 21.20603 26749 ft 460 kts 142°
2026-05-04 20:44 48.57038 21.23562 26785 ft 460 kts 142°
2026-05-04 20:44 48.54504 21.26525 26820 ft 461 kts 142°
2026-05-04 20:44 48.51958 21.29468 26852 ft 461 kts 144°
2026-05-04 20:44 48.49297 21.32163 26881 ft 461 kts 148°
2026-05-04 20:45 48.46578 21.34714 26914 ft 461 kts 149°
2026-05-04 20:45 48.43833 21.37213 26944 ft 461 kts 149°
2026-05-04 20:45 48.41077 21.39706 26971 ft 462 kts 149°
2026-05-04 20:45 48.38327 21.42205 27000 ft 462 kts 149°
2026-05-04 20:46 48.35580 21.44718 27029 ft 462 kts 149°
2026-05-04 20:46 48.32837 21.47243 27056 ft 462 kts 149°
2026-05-04 20:46 48.30100 21.49772 27083 ft 463 kts 148°
2026-05-04 20:46 48.27360 21.52308 27102 ft 463 kts 148°
2026-05-04 20:47 48.24616 21.54848 27114 ft 463 kts 148°
2026-05-04 20:47 48.21873 21.57386 27146 ft 463 kts 148°
2026-05-04 20:47 48.19128 21.59921 27175 ft 463 kts 148°
2026-05-04 20:47 48.16378 21.62458 27194 ft 464 kts 148°
2026-05-04 20:48 48.13634 21.64985 27205 ft 464 kts 149°
2026-05-04 20:48 48.10882 21.67516 27213 ft 464 kts 149°
2026-05-04 20:48 48.08131 21.70042 27240 ft 464 kts 149°
2026-05-04 20:48 48.05378 21.72567 27269 ft 464 kts 149°
2026-05-04 20:49 48.02628 21.75086 27286 ft 464 kts 149°
2026-05-04 20:49 47.99868 21.77611 27298 ft 465 kts 149°
2026-05-04 20:49 47.97113 21.80128 27311 ft 465 kts 149°
2026-05-04 20:49 47.94353 21.82646 27328 ft 465 kts 149°
2026-05-04 20:50 47.91596 21.85159 27344 ft 465 kts 149°
2026-05-04 20:50 47.88831 21.87676 27357 ft 465 kts 149°
2026-05-04 20:50 47.86071 21.90185 27370 ft 465 kts 149°
2026-05-04 20:50 47.83306 21.92695 27373 ft 466 kts 149°
2026-05-04 20:51 47.80581 21.95166 27387 ft 466 kts 149°
2026-05-04 20:51 47.77813 21.97673 27408 ft 465 kts 149°
2026-05-04 20:51 47.75047 22.00174 27423 ft 465 kts 149°
2026-05-04 20:51 47.72244 22.02707 27431 ft 466 kts 149°
2026-05-04 20:52 47.69478 22.05203 27441 ft 466 kts 149°
2026-05-04 20:52 47.66743 22.07667 27451 ft 466 kts 149°
2026-05-04 20:52 47.63936 22.10193 27463 ft 466 kts 149°
2026-05-04 20:52 47.61166 22.12683 27475 ft 466 kts 149°
2026-05-04 20:53 47.58390 22.15174 27482 ft 466 kts 149°
2026-05-04 20:53 47.55652 22.17630 27486 ft 466 kts 149°
2026-05-04 20:53 47.52871 22.20119 27494 ft 466 kts 149°
2026-05-04 20:53 47.50097 22.22600 27508 ft 466 kts 149°
2026-05-04 20:54 47.47322 22.25079 27518 ft 466 kts 149°
2026-05-04 20:54 47.44544 22.27557 27524 ft 466 kts 149°
2026-05-04 20:54 47.41766 22.30032 27530 ft 467 kts 149°
2026-05-04 20:54 47.38983 22.32509 27538 ft 467 kts 149°
2026-05-04 20:55 47.36205 22.34978 27544 ft 467 kts 149°
2026-05-04 20:55 47.33421 22.37449 27548 ft 467 kts 149°
2026-05-04 20:55 47.30638 22.39916 27557 ft 467 kts 149°
2026-05-04 20:55 47.27855 22.42381 27569 ft 467 kts 149°
2026-05-04 20:56 47.25071 22.44843 27572 ft 467 kts 149°
2026-05-04 20:56 47.22287 22.47302 27575 ft 467 kts 149°
2026-05-04 20:56 47.19500 22.49760 27582 ft 467 kts 149°
2026-05-04 20:56 47.16717 22.52212 27589 ft 467 kts 149°
2026-05-04 20:57 47.13928 22.54666 27595 ft 467 kts 149°
2026-05-04 20:57 47.11142 22.57115 27604 ft 467 kts 149°
2026-05-04 20:57 47.08351 22.59564 27607 ft 467 kts 149°
2026-05-04 20:57 47.05563 22.62009 27609 ft 467 kts 149°
2026-05-04 20:58 47.02771 22.64454 27616 ft 467 kts 149°
2026-05-04 20:58 46.99976 22.66898 27622 ft 467 kts 149°
2026-05-04 20:58 46.97185 22.69336 27634 ft 467 kts 149°
2026-05-04 20:58 46.94394 22.71771 27673 ft 467 kts 149°
2026-05-04 20:59 46.91608 22.74198 27692 ft 466 kts 149°
2026-05-04 20:59 46.88820 22.76625 27696 ft 467 kts 149°
2026-05-04 20:59 46.86026 22.79053 27708 ft 467 kts 149°
2026-05-04 20:59 46.83237 22.81475 27720 ft 467 kts 149°
2026-05-04 21:00 46.80446 22.83895 27725 ft 467 kts 149°
2026-05-04 21:00 46.77653 22.86314 27730 ft 467 kts 149°
2026-05-04 21:00 46.74863 22.88727 27735 ft 467 kts 149°
2026-05-04 21:00 46.72069 22.91141 27745 ft 467 kts 149°
2026-05-04 21:01 46.69274 22.93552 27754 ft 467 kts 149°
2026-05-04 21:01 46.66480 22.95961 27761 ft 467 kts 149°
2026-05-04 21:01 46.63679 22.98371 27766 ft 467 kts 149°
2026-05-04 21:01 46.60885 23.00774 27771 ft 467 kts 149°
2026-05-04 21:02 46.58123 23.03146 27778 ft 467 kts 149°
2026-05-04 21:02 46.55322 23.05547 27785 ft 467 kts 150°
2026-05-04 21:02 46.52529 23.07940 27793 ft 467 kts 150°
2026-05-04 21:02 46.49686 23.10372 27797 ft 467 kts 150°
2026-05-04 21:03 46.46926 23.12731 27801 ft 467 kts 150°
2026-05-04 21:03 46.44124 23.15123 27803 ft 467 kts 150°
2026-05-04 21:03 46.41321 23.17512 27810 ft 467 kts 150°
2026-05-04 21:03 46.38517 23.19900 27814 ft 467 kts 150°
2026-05-04 21:04 46.35713 23.22284 27817 ft 467 kts 150°
2026-05-04 21:04 46.32906 23.24669 27824 ft 467 kts 150°
2026-05-04 21:04 46.30102 23.27047 27829 ft 467 kts 150°
2026-05-04 21:04 46.28208 23.28653 27832 ft 468 kts 150°
2026-05-04 21:05 46.25396 23.31033 27834 ft 468 kts 150°
2026-05-04 21:05 46.22627 23.33375 27835 ft 468 kts 150°
2026-05-04 21:05 46.19821 23.35745 27838 ft 468 kts 150°
2026-05-04 21:05 46.17011 23.38116 27844 ft 468 kts 150°
2026-05-04 21:06 46.14204 23.40482 27852 ft 468 kts 150°
2026-05-04 21:06 46.11392 23.42848 27854 ft 468 kts 150°
2026-05-04 21:06 46.08580 23.45212 27858 ft 468 kts 150°
2026-05-04 21:06 46.05773 23.47569 27863 ft 468 kts 150°
2026-05-04 21:07 46.02956 23.49932 27869 ft 468 kts 150°
2026-05-04 21:07 46.00145 23.52286 27870 ft 468 kts 150°
2026-05-04 21:07 45.97334 23.54639 27879 ft 468 kts 150°
2026-05-04 21:07 45.94523 23.56988 27894 ft 467 kts 150°
2026-05-04 21:08 45.91712 23.59334 27911 ft 467 kts 150°
2026-05-04 21:08 45.88901 23.61677 27912 ft 467 kts 150°
2026-05-04 21:08 45.86084 23.64023 27915 ft 467 kts 150°
2026-05-04 21:08 45.83271 23.66363 27917 ft 467 kts 150°
2026-05-04 21:09 45.80460 23.68698 27921 ft 467 kts 150°
2026-05-04 21:09 45.77644 23.71035 27924 ft 467 kts 150°
2026-05-04 21:09 45.74829 23.73368 27926 ft 467 kts 150°
2026-05-04 21:09 45.72015 23.75697 27931 ft 467 kts 150°
2026-05-04 21:10 45.69198 23.78026 27930 ft 468 kts 150°
2026-05-04 21:10 45.66380 23.80353 27937 ft 468 kts 150°
2026-05-04 21:10 45.63562 23.82678 27940 ft 468 kts 150°
2026-05-04 21:10 45.60742 23.85001 27946 ft 468 kts 150°
2026-05-04 21:11 45.57922 23.87322 27950 ft 468 kts 150°
2026-05-04 21:11 45.55102 23.89640 27952 ft 468 kts 150°
2026-05-04 21:11 45.52283 23.91955 27953 ft 468 kts 150°
2026-05-04 21:11 45.49464 23.94267 27955 ft 468 kts 150°
2026-05-04 21:12 45.46641 23.96579 27958 ft 468 kts 150°
2026-05-04 21:12 45.43820 23.98887 27959 ft 468 kts 150°
2026-05-04 21:12 45.41038 24.01161 27965 ft 468 kts 150°
2026-05-04 21:12 45.38216 24.03464 27970 ft 468 kts 150°
2026-05-04 21:13 45.35391 24.05768 27974 ft 468 kts 150°
2026-05-04 21:13 45.32530 24.08098 27974 ft 468 kts 150°
2026-05-04 21:13 45.29743 24.10365 27978 ft 468 kts 150°
2026-05-04 21:13 45.26918 24.12660 27987 ft 468 kts 150°
2026-05-04 21:14 45.24096 24.14950 27988 ft 468 kts 150°
2026-05-04 21:14 45.21271 24.17240 27991 ft 468 kts 150°
2026-05-04 21:14 45.18446 24.19528 27993 ft 468 kts 150°
2026-05-04 21:14 45.15637 24.21800 28284 ft 460 kts 150°
2026-05-04 21:15 45.12880 24.24027 28641 ft 452 kts 150°
2026-05-04 21:15 45.10170 24.26214 28972 ft 446 kts 150°
2026-05-04 21:15 45.04752 24.30579 28996 ft 450 kts 150°
2026-05-04 21:16 44.99294 24.34966 29024 ft 453 kts 150°
2026-05-04 21:16 44.93794 24.39376 29048 ft 455 kts 150°
2026-05-04 21:17 44.88299 24.43774 29405 ft 449 kts 150°
2026-05-04 21:17 44.85604 24.45928 29711 ft 443 kts 150°
2026-05-04 21:17 44.82936 24.48057 29894 ft 441 kts 150°
2026-05-04 21:18 44.77574 24.52329 30022 ft 442 kts 151°
2026-05-04 21:18 44.74928 24.54434 30416 ft 434 kts 151°
2026-05-04 21:18 44.72317 24.56509 30771 ft 428 kts 151°
2026-05-04 21:19 44.69727 24.58565 30880 ft 428 kts 151°
2026-05-04 21:19 44.67132 24.60624 30980 ft 428 kts 151°